Year,Month,Day,Hour,Minute,Value (Times are PST for temperature in C)
2022,10,03,00,00,14.40
2022,10,03,00,01,14.40
2022,10,03,00,02,14.40
2022,10,03,00,03,14.30
2022,10,03,00,04,14.30
2022,10,03,00,05,14.30
2022,10,03,00,06,14.30
2022,10,03,00,07,14.30
2022,10,03,00,08,14.30
2022,10,03,00,09,14.30
2022,10,03,00,10,14.30
2022,10,03,00,11,14.20
2022,10,03,00,12,14.20
2022,10,03,00,13,14.20
2022,10,03,00,14,14.20
2022,10,03,00,15,14.20
2022,10,03,00,16,14.20
2022,10,03,00,17,14.20
2022,10,03,00,18,14.20
2022,10,03,00,19,14.20
2022,10,03,00,20,14.20
2022,10,03,00,21,14.20
2022,10,03,00,22,14.10
2022,10,03,00,23,14.10
2022,10,03,00,24,14.10
2022,10,03,00,25,14.10
2022,10,03,00,26,14.10
2022,10,03,00,27,14.00
2022,10,03,00,28,14.00
2022,10,03,00,29,14.00
2022,10,03,00,30,14.00
2022,10,03,00,31,14.00
2022,10,03,00,32,14.00
2022,10,03,00,33,14.00
2022,10,03,00,34,14.00
2022,10,03,00,35,14.00
2022,10,03,00,36,14.00
2022,10,03,00,37,13.90
2022,10,03,00,38,13.90
2022,10,03,00,39,13.90
2022,10,03,00,40,13.90
2022,10,03,00,41,13.90
2022,10,03,00,42,13.90
2022,10,03,00,43,13.90
2022,10,03,00,44,13.90
2022,10,03,00,45,13.90
2022,10,03,00,46,13.90
2022,10,03,00,47,13.80
2022,10,03,00,48,13.80
2022,10,03,00,49,13.80
2022,10,03,00,50,13.80
2022,10,03,00,51,13.70
2022,10,03,00,52,13.70
2022,10,03,00,53,13.70
2022,10,03,00,54,13.70
2022,10,03,00,55,13.70
2022,10,03,00,56,13.70
2022,10,03,00,57,13.70
2022,10,03,00,58,13.70
2022,10,03,00,59,13.70
2022,10,03,01,00,13.80
2022,10,03,01,01,13.80
2022,10,03,01,02,13.80
2022,10,03,01,03,13.80
2022,10,03,01,04,13.80
2022,10,03,01,05,13.80
2022,10,03,01,06,13.70
2022,10,03,01,07,13.70
2022,10,03,01,08,13.70
2022,10,03,01,09,13.70
2022,10,03,01,10,13.70
2022,10,03,01,11,13.70
2022,10,03,01,12,13.70
2022,10,03,01,13,13.70
2022,10,03,01,14,13.70
2022,10,03,01,15,13.70
2022,10,03,01,16,13.70
2022,10,03,01,17,13.60
2022,10,03,01,18,13.60
2022,10,03,01,19,13.60
2022,10,03,01,20,13.60
2022,10,03,01,21,13.60
2022,10,03,01,22,13.60
2022,10,03,01,23,13.60
2022,10,03,01,24,13.60
2022,10,03,01,25,13.60
2022,10,03,01,26,13.50
2022,10,03,01,27,13.50
2022,10,03,01,28,13.50
2022,10,03,01,29,13.50
2022,10,03,01,30,13.40
2022,10,03,01,31,13.40
2022,10,03,01,32,13.40
2022,10,03,01,33,13.40
2022,10,03,01,34,13.30
2022,10,03,01,35,13.30
2022,10,03,01,36,13.30
2022,10,03,01,37,13.30
2022,10,03,01,38,13.30
2022,10,03,01,39,13.30
2022,10,03,01,40,13.30
2022,10,03,01,41,13.30
2022,10,03,01,42,13.20
2022,10,03,01,43,13.20
2022,10,03,01,44,13.20
2022,10,03,01,45,13.20
2022,10,03,01,46,13.20
2022,10,03,01,47,13.20
2022,10,03,01,48,13.10
2022,10,03,01,49,13.10
2022,10,03,01,50,13.10
2022,10,03,01,51,13.10
2022,10,03,01,52,13.10
2022,10,03,01,53,13.10
2022,10,03,01,54,13.00
2022,10,03,01,55,13.00
2022,10,03,01,56,13.00
2022,10,03,01,57,13.00
2022,10,03,01,58,13.00
2022,10,03,01,59,13.00
2022,10,03,02,00,13.00
2022,10,03,02,01,13.00
2022,10,03,02,02,13.00
2022,10,03,02,03,13.00
2022,10,03,02,04,13.00
2022,10,03,02,05,13.10
2022,10,03,02,06,13.10
2022,10,03,02,07,13.10
2022,10,03,02,08,13.10
2022,10,03,02,09,13.00
2022,10,03,02,10,13.10
2022,10,03,02,11,13.10
2022,10,03,02,12,13.00
2022,10,03,02,13,13.00
2022,10,03,02,14,13.00
2022,10,03,02,15,13.00
2022,10,03,02,16,12.90
2022,10,03,02,17,12.90
2022,10,03,02,18,12.90
2022,10,03,02,19,12.80
2022,10,03,02,20,12.80
2022,10,03,02,21,12.80
2022,10,03,02,22,12.80
2022,10,03,02,23,12.80
2022,10,03,02,24,12.70
2022,10,03,02,25,12.70
2022,10,03,02,26,12.70
2022,10,03,02,27,12.70
2022,10,03,02,28,12.70
2022,10,03,02,29,12.80
2022,10,03,02,30,12.80
2022,10,03,02,31,12.80
2022,10,03,02,32,12.80
2022,10,03,02,33,12.80
2022,10,03,02,34,12.80
2022,10,03,02,35,12.80
2022,10,03,02,36,12.80
2022,10,03,02,37,12.80
2022,10,03,02,38,12.70
2022,10,03,02,39,12.70
2022,10,03,02,40,12.70
2022,10,03,02,41,12.70
2022,10,03,02,42,12.60
2022,10,03,02,43,12.60
2022,10,03,02,44,12.60
2022,10,03,02,45,12.60
2022,10,03,02,46,12.50
2022,10,03,02,47,12.50
2022,10,03,02,48,12.50
2022,10,03,02,49,12.50
2022,10,03,02,50,12.50
2022,10,03,02,51,12.50
2022,10,03,02,52,12.40
2022,10,03,02,53,12.40
2022,10,03,02,54,12.40
2022,10,03,02,55,12.40
2022,10,03,02,56,12.40
2022,10,03,02,57,12.40
2022,10,03,02,58,12.40
2022,10,03,02,59,12.40
2022,10,03,03,00,12.40
2022,10,03,03,01,12.30
2022,10,03,03,02,12.30
2022,10,03,03,03,12.30
2022,10,03,03,04,12.30
2022,10,03,03,05,12.30
2022,10,03,03,06,12.30
2022,10,03,03,07,12.30
2022,10,03,03,08,12.30
2022,10,03,03,09,12.30
2022,10,03,03,10,12.30
2022,10,03,03,11,12.30
2022,10,03,03,12,12.30
2022,10,03,03,13,12.20
2022,10,03,03,14,12.20
2022,10,03,03,15,12.20
2022,10,03,03,16,12.20
2022,10,03,03,17,12.20
2022,10,03,03,18,12.20
2022,10,03,03,19,12.10
2022,10,03,03,20,12.10
2022,10,03,03,21,12.10
2022,10,03,03,22,12.10
2022,10,03,03,23,12.00
2022,10,03,03,24,12.00
2022,10,03,03,25,12.00
2022,10,03,03,26,12.00
2022,10,03,03,27,12.00
2022,10,03,03,28,11.90
2022,10,03,03,29,11.90
2022,10,03,03,30,11.90
2022,10,03,03,31,11.90
2022,10,03,03,32,11.90
2022,10,03,03,33,11.90
2022,10,03,03,34,11.90
2022,10,03,03,35,11.90
2022,10,03,03,36,11.90
2022,10,03,03,37,11.90
2022,10,03,03,38,11.90
2022,10,03,03,39,11.90
2022,10,03,03,40,11.80
2022,10,03,03,41,11.80
2022,10,03,03,42,11.80
2022,10,03,03,43,11.80
2022,10,03,03,44,11.80
2022,10,03,03,45,11.80
2022,10,03,03,46,11.80
2022,10,03,03,47,11.80
2022,10,03,03,48,11.80
2022,10,03,03,49,11.80
2022,10,03,03,50,11.80
2022,10,03,03,51,11.80
2022,10,03,03,52,11.80
2022,10,03,03,53,11.80
2022,10,03,03,54,11.80
2022,10,03,03,55,11.80
2022,10,03,03,56,11.80
2022,10,03,03,57,11.80
2022,10,03,03,58,11.80
2022,10,03,03,59,11.80
2022,10,03,04,00,11.80
2022,10,03,04,01,11.80
2022,10,03,04,02,11.80
2022,10,03,04,03,11.80
2022,10,03,04,04,11.80
2022,10,03,04,05,11.80
2022,10,03,04,06,11.80
2022,10,03,04,07,11.80
2022,10,03,04,08,11.80
2022,10,03,04,09,11.80
2022,10,03,04,10,11.80
2022,10,03,04,11,11.80
2022,10,03,04,12,11.80
2022,10,03,04,13,11.80
2022,10,03,04,14,11.80
2022,10,03,04,15,11.80
2022,10,03,04,16,11.80
2022,10,03,04,17,11.80
2022,10,03,04,18,11.80
2022,10,03,04,19,11.70
2022,10,03,04,20,11.70
2022,10,03,04,21,11.70
2022,10,03,04,22,11.70
2022,10,03,04,23,11.70
2022,10,03,04,24,11.70
2022,10,03,04,25,11.70
2022,10,03,04,26,11.70
2022,10,03,04,27,11.70
2022,10,03,04,28,11.70
2022,10,03,04,29,11.70
2022,10,03,04,30,11.60
2022,10,03,04,31,11.60
2022,10,03,04,32,11.60
2022,10,03,04,33,11.60
2022,10,03,04,34,11.60
2022,10,03,04,35,11.60
2022,10,03,04,36,11.60
2022,10,03,04,37,11.60
2022,10,03,04,38,11.60
2022,10,03,04,39,11.60
2022,10,03,04,40,11.60
2022,10,03,04,41,11.60
2022,10,03,04,42,11.60
2022,10,03,04,43,11.60
2022,10,03,04,44,11.60
2022,10,03,04,45,11.70
2022,10,03,04,46,11.70
2022,10,03,04,47,11.80
2022,10,03,04,48,11.80
2022,10,03,04,49,11.80
2022,10,03,04,50,11.80
2022,10,03,04,51,11.80
2022,10,03,04,52,11.80
2022,10,03,04,53,11.80
2022,10,03,04,54,11.80
2022,10,03,04,55,11.80
2022,10,03,04,56,11.80
2022,10,03,04,57,11.80
2022,10,03,04,58,11.80
2022,10,03,04,59,11.80
2022,10,03,05,00,11.80
2022,10,03,05,01,11.80
2022,10,03,05,02,11.80
2022,10,03,05,03,11.80
2022,10,03,05,04,11.80
2022,10,03,05,05,11.80
2022,10,03,05,06,11.80
2022,10,03,05,07,11.70
2022,10,03,05,08,11.70
2022,10,03,05,09,11.60
2022,10,03,05,10,11.60
2022,10,03,05,11,11.60
2022,10,03,05,12,11.60
2022,10,03,05,13,11.60
2022,10,03,05,14,11.50
2022,10,03,05,15,11.40
2022,10,03,05,16,11.40
2022,10,03,05,17,11.40
2022,10,03,05,18,11.40
2022,10,03,05,19,11.30
2022,10,03,05,20,11.30
2022,10,03,05,21,11.30
2022,10,03,05,22,11.30
2022,10,03,05,23,11.30
2022,10,03,05,24,11.30
2022,10,03,05,25,11.30
2022,10,03,05,26,11.20
2022,10,03,05,27,11.20
2022,10,03,05,28,11.20
2022,10,03,05,29,11.20
2022,10,03,05,30,11.20
2022,10,03,05,31,11.20
2022,10,03,05,32,11.20
2022,10,03,05,33,11.20
2022,10,03,05,34,11.20
2022,10,03,05,35,11.20
2022,10,03,05,36,11.20
2022,10,03,05,37,11.20
2022,10,03,05,38,11.20
2022,10,03,05,39,11.20
2022,10,03,05,40,11.20
2022,10,03,05,41,11.20
2022,10,03,05,42,11.20
2022,10,03,05,43,11.20
2022,10,03,05,44,11.20
2022,10,03,05,45,11.20
2022,10,03,05,46,11.20
2022,10,03,05,47,11.20
2022,10,03,05,48,11.20
2022,10,03,05,49,11.20
2022,10,03,05,50,11.20
2022,10,03,05,51,11.20
2022,10,03,05,52,11.20
2022,10,03,05,53,11.20
2022,10,03,05,54,11.20
2022,10,03,05,55,11.10
2022,10,03,05,56,11.10
2022,10,03,05,57,11.10
2022,10,03,05,58,11.10
2022,10,03,05,59,11.10
2022,10,03,06,00,11.10
2022,10,03,06,01,11.10
2022,10,03,06,02,11.10
2022,10,03,06,03,11.10
2022,10,03,06,04,11.10
2022,10,03,06,05,11.10
2022,10,03,06,06,11.10
2022,10,03,06,07,11.10
2022,10,03,06,08,11.10
2022,10,03,06,09,11.10
2022,10,03,06,10,11.10
2022,10,03,06,11,11.00
2022,10,03,06,12,10.90
2022,10,03,06,13,10.90
2022,10,03,06,14,10.90
2022,10,03,06,15,10.90
2022,10,03,06,16,10.90
2022,10,03,06,17,10.90
2022,10,03,06,18,10.90
2022,10,03,06,19,10.90
2022,10,03,06,20,10.90
2022,10,03,06,21,10.90
2022,10,03,06,22,10.90
2022,10,03,06,23,10.90
2022,10,03,06,24,10.90
2022,10,03,06,25,10.90
2022,10,03,06,26,10.90
2022,10,03,06,27,10.90
2022,10,03,06,28,10.90
2022,10,03,06,29,10.90
2022,10,03,06,30,10.90
2022,10,03,06,31,10.80
2022,10,03,06,32,10.80
2022,10,03,06,33,10.80
2022,10,03,06,34,10.80
2022,10,03,06,35,10.80
2022,10,03,06,36,10.80
2022,10,03,06,37,10.80
2022,10,03,06,38,10.80
2022,10,03,06,39,10.90
2022,10,03,06,40,10.90
2022,10,03,06,41,10.90
2022,10,03,06,42,10.90
2022,10,03,06,43,10.90
2022,10,03,06,44,10.90
2022,10,03,06,45,10.90
2022,10,03,06,46,10.90
2022,10,03,06,47,10.90
2022,10,03,06,48,10.90
2022,10,03,06,49,10.90
2022,10,03,06,50,10.90
2022,10,03,06,51,10.90
2022,10,03,06,52,10.90
2022,10,03,06,53,10.90
2022,10,03,06,54,10.90
2022,10,03,06,55,10.90
2022,10,03,06,56,10.90
2022,10,03,06,57,10.90
2022,10,03,06,58,10.90
2022,10,03,06,59,10.90
2022,10,03,07,00,10.90
2022,10,03,07,01,10.90
2022,10,03,07,02,10.90
2022,10,03,07,03,10.90
2022,10,03,07,04,10.90
2022,10,03,07,05,10.90
2022,10,03,07,06,10.90
2022,10,03,07,07,10.90
2022,10,03,07,08,10.90
2022,10,03,07,09,10.90
2022,10,03,07,10,10.90
2022,10,03,07,11,10.90
2022,10,03,07,12,10.90
2022,10,03,07,13,10.90
2022,10,03,07,14,10.90
2022,10,03,07,15,10.90
2022,10,03,07,16,10.90
2022,10,03,07,17,10.90
2022,10,03,07,18,10.90
2022,10,03,07,19,10.90
2022,10,03,07,20,10.90
2022,10,03,07,21,10.90
2022,10,03,07,22,10.90
2022,10,03,07,23,10.90
2022,10,03,07,24,10.90
2022,10,03,07,25,10.90
2022,10,03,07,26,11.00
2022,10,03,07,27,11.10
2022,10,03,07,28,11.10
2022,10,03,07,29,11.10
2022,10,03,07,30,11.10
2022,10,03,07,31,11.10
2022,10,03,07,32,11.10
2022,10,03,07,33,11.00
2022,10,03,07,34,10.90
2022,10,03,07,35,10.90
2022,10,03,07,36,10.90
2022,10,03,07,37,10.90
2022,10,03,07,38,10.90
2022,10,03,07,39,10.90
2022,10,03,07,40,10.90
2022,10,03,07,41,10.90
2022,10,03,07,42,10.90
2022,10,03,07,43,11.10
2022,10,03,07,44,11.10
2022,10,03,07,45,11.10
2022,10,03,07,46,11.10
2022,10,03,07,47,11.10
2022,10,03,07,48,11.10
2022,10,03,07,49,11.10
2022,10,03,07,50,11.20
2022,10,03,07,51,11.20
2022,10,03,07,52,11.30
2022,10,03,07,53,11.30
2022,10,03,07,54,11.40
2022,10,03,07,55,11.40
2022,10,03,07,56,11.40
2022,10,03,07,57,11.50
2022,10,03,07,58,11.60
2022,10,03,07,59,11.60
2022,10,03,08,00,11.70
2022,10,03,08,01,11.70
2022,10,03,08,02,11.80
2022,10,03,08,03,11.80
2022,10,03,08,04,11.80
2022,10,03,08,05,11.90
2022,10,03,08,06,11.90
2022,10,03,08,07,12.00
2022,10,03,08,08,12.00
2022,10,03,08,09,12.10
2022,10,03,08,10,12.20
2022,10,03,08,11,12.20
2022,10,03,08,12,12.30
2022,10,03,08,13,12.30
2022,10,03,08,14,12.30
2022,10,03,08,15,12.40
2022,10,03,08,16,12.50
2022,10,03,08,17,12.50
2022,10,03,08,18,12.60
2022,10,03,08,19,12.70
2022,10,03,08,20,12.80
2022,10,03,08,21,12.80
2022,10,03,08,22,12.90
2022,10,03,08,23,13.00
2022,10,03,08,24,13.00
2022,10,03,08,25,13.10
2022,10,03,08,26,13.20
2022,10,03,08,27,13.20
2022,10,03,08,28,13.30
2022,10,03,08,29,13.30
2022,10,03,08,30,13.30
2022,10,03,08,31,13.30
2022,10,03,08,32,13.30
2022,10,03,08,33,13.30
2022,10,03,08,34,13.30
2022,10,03,08,35,13.30
2022,10,03,08,36,13.30
2022,10,03,08,37,13.40
2022,10,03,08,38,13.40
2022,10,03,08,39,13.40
2022,10,03,08,40,13.40
2022,10,03,08,41,13.40
2022,10,03,08,42,13.50
2022,10,03,08,43,13.50
2022,10,03,08,44,13.50
2022,10,03,08,45,13.50
2022,10,03,08,46,13.60
2022,10,03,08,47,13.70
2022,10,03,08,48,13.80
2022,10,03,08,49,13.90
2022,10,03,08,50,14.00
2022,10,03,08,51,14.20
2022,10,03,08,52,14.20
2022,10,03,08,53,14.30
2022,10,03,08,54,14.40
2022,10,03,08,55,14.40
2022,10,03,08,56,14.50
2022,10,03,08,57,14.50
2022,10,03,08,58,14.60
2022,10,03,08,59,14.60
2022,10,03,09,00,14.70
2022,10,03,09,01,14.80
2022,10,03,09,02,14.80
2022,10,03,09,03,14.80
2022,10,03,09,04,14.90
2022,10,03,09,05,15.00
2022,10,03,09,06,15.10
2022,10,03,09,07,15.10
2022,10,03,09,08,15.20
2022,10,03,09,09,15.40
2022,10,03,09,10,15.50
2022,10,03,09,11,15.60
2022,10,03,09,12,15.60
2022,10,03,09,13,15.70
2022,10,03,09,14,15.70
2022,10,03,09,15,15.70
2022,10,03,09,16,15.90
2022,10,03,09,17,16.20
2022,10,03,09,18,16.30
2022,10,03,09,19,16.40
2022,10,03,09,20,16.50
2022,10,03,09,21,16.60
2022,10,03,09,22,16.70
2022,10,03,09,23,16.70
2022,10,03,09,24,16.80
2022,10,03,09,25,16.90
2022,10,03,09,26,16.90
2022,10,03,09,27,17.00
2022,10,03,09,28,17.00
2022,10,03,09,29,17.10
2022,10,03,09,30,17.10
2022,10,03,09,31,17.20
2022,10,03,09,32,17.30
2022,10,03,09,33,17.30
2022,10,03,09,34,17.30
2022,10,03,09,35,17.30
2022,10,03,09,36,17.30
2022,10,03,09,37,17.30
2022,10,03,09,38,17.30
2022,10,03,09,39,17.40
2022,10,03,09,40,17.40
2022,10,03,09,41,17.50
2022,10,03,09,42,17.60
2022,10,03,09,43,17.60
2022,10,03,09,44,17.70
2022,10,03,09,45,17.70
2022,10,03,09,46,17.70
2022,10,03,09,47,17.70
2022,10,03,09,48,17.70
2022,10,03,09,49,17.70
2022,10,03,09,50,17.70
2022,10,03,09,51,17.70
2022,10,03,09,52,17.70
2022,10,03,09,53,17.60
2022,10,03,09,54,17.60
2022,10,03,09,55,17.60
2022,10,03,09,56,17.60
2022,10,03,09,57,17.70
2022,10,03,09,58,17.70
2022,10,03,09,59,17.70
2022,10,03,10,00,17.60
2022,10,03,10,01,17.60
2022,10,03,10,02,17.60
2022,10,03,10,03,17.60
2022,10,03,10,04,17.60
2022,10,03,10,05,17.50
2022,10,03,10,06,17.50
2022,10,03,10,07,17.60
2022,10,03,10,08,17.60
2022,10,03,10,09,17.60
2022,10,03,10,10,17.60
2022,10,03,10,11,17.50
2022,10,03,10,12,17.50
2022,10,03,10,13,17.40
2022,10,03,10,14,17.40
2022,10,03,10,15,17.50
2022,10,03,10,16,17.50
2022,10,03,10,17,17.50
2022,10,03,10,18,17.40
2022,10,03,10,19,17.40
2022,10,03,10,20,17.40
2022,10,03,10,21,17.40
2022,10,03,10,22,17.40
2022,10,03,10,23,17.40
2022,10,03,10,24,17.50
2022,10,03,10,25,17.50
2022,10,03,10,26,17.60
2022,10,03,10,27,17.70
2022,10,03,10,28,17.80
2022,10,03,10,29,17.80
2022,10,03,10,30,17.80
2022,10,03,10,31,17.90
2022,10,03,10,32,17.90
2022,10,03,10,33,17.90
2022,10,03,10,34,17.90
2022,10,03,10,35,17.90
2022,10,03,10,36,18.10
2022,10,03,10,37,18.10
2022,10,03,10,38,18.10
2022,10,03,10,39,18.10
2022,10,03,10,40,18.10
2022,10,03,10,41,18.10
2022,10,03,10,42,18.10
2022,10,03,10,43,18.20
2022,10,03,10,44,18.20
2022,10,03,10,45,18.20
2022,10,03,10,46,18.20
2022,10,03,10,47,18.20
2022,10,03,10,48,18.30
2022,10,03,10,49,18.30
2022,10,03,10,50,18.40
2022,10,03,10,51,18.40
2022,10,03,10,52,18.40
2022,10,03,10,53,18.50
2022,10,03,10,54,18.40
2022,10,03,10,55,18.50
2022,10,03,10,56,18.50
2022,10,03,10,57,18.60
2022,10,03,10,58,18.60
2022,10,03,10,59,18.60
2022,10,03,11,00,18.70
2022,10,03,11,01,18.80
2022,10,03,11,02,18.80
2022,10,03,11,03,18.90
2022,10,03,11,04,18.90
2022,10,03,11,05,19.00
2022,10,03,11,06,19.10
2022,10,03,11,07,19.10
2022,10,03,11,08,19.10
2022,10,03,11,09,19.10
2022,10,03,11,10,19.10
2022,10,03,11,11,19.00
2022,10,03,11,12,18.90
2022,10,03,11,13,18.90
2022,10,03,11,14,18.90
2022,10,03,11,15,18.90
2022,10,03,11,16,18.90
2022,10,03,11,17,18.90
2022,10,03,11,18,18.90
2022,10,03,11,19,18.90
2022,10,03,11,20,18.90
2022,10,03,11,21,18.90
2022,10,03,11,22,18.90
2022,10,03,11,23,18.90
2022,10,03,11,24,18.90
2022,10,03,11,25,19.10
2022,10,03,11,26,19.10
2022,10,03,11,27,19.10
2022,10,03,11,28,19.20
2022,10,03,11,29,19.30
2022,10,03,11,30,19.30
2022,10,03,11,31,19.30
2022,10,03,11,32,19.30
2022,10,03,11,33,19.30
2022,10,03,11,34,19.30
2022,10,03,11,35,19.30
2022,10,03,11,36,19.40
2022,10,03,11,37,19.50
2022,10,03,11,38,19.40
2022,10,03,11,39,19.40
2022,10,03,11,40,19.40
2022,10,03,11,41,19.40
2022,10,03,11,42,19.50
2022,10,03,11,43,19.60
2022,10,03,11,44,19.60
2022,10,03,11,45,19.70
2022,10,03,11,46,19.80
2022,10,03,11,47,19.80
2022,10,03,11,48,19.90
2022,10,03,11,49,19.90
2022,10,03,11,50,19.90
2022,10,03,11,51,19.90
2022,10,03,11,52,19.90
2022,10,03,11,53,19.90
2022,10,03,11,54,19.90
2022,10,03,11,55,19.80
2022,10,03,11,56,19.80
2022,10,03,11,57,19.90
2022,10,03,11,58,19.90
2022,10,03,11,59,19.90
2022,10,03,12,00,19.90
2022,10,03,12,01,19.90
2022,10,03,12,02,19.90
2022,10,03,12,03,19.90
2022,10,03,12,04,19.90
2022,10,03,12,05,20.10
2022,10,03,12,06,20.10
2022,10,03,12,07,20.20
2022,10,03,12,08,20.20
2022,10,03,12,09,20.20
2022,10,03,12,10,20.20
2022,10,03,12,11,20.20
2022,10,03,12,12,20.20
2022,10,03,12,13,20.20
2022,10,03,12,14,20.20
2022,10,03,12,15,20.20
2022,10,03,12,16,20.20
2022,10,03,12,17,20.20
2022,10,03,12,18,20.20
2022,10,03,12,19,20.20
2022,10,03,12,20,20.20
2022,10,03,12,21,20.20
2022,10,03,12,22,20.20
2022,10,03,12,23,20.20
2022,10,03,12,24,20.20
2022,10,03,12,25,20.20
2022,10,03,12,26,20.20
2022,10,03,12,27,20.20
2022,10,03,12,28,20.20
2022,10,03,12,29,20.20
2022,10,03,12,30,20.20
2022,10,03,12,31,20.20
2022,10,03,12,32,20.30
2022,10,03,12,33,20.30
2022,10,03,12,34,20.40
2022,10,03,12,35,20.40
2022,10,03,12,36,20.50
2022,10,03,12,37,20.60
2022,10,03,12,38,20.60
2022,10,03,12,39,20.70
2022,10,03,12,40,20.80
2022,10,03,12,41,20.80
2022,10,03,12,42,20.90
2022,10,03,12,43,20.90
2022,10,03,12,44,20.90
2022,10,03,12,45,21.00
2022,10,03,12,46,21.00
2022,10,03,12,47,21.00
2022,10,03,12,48,21.00
2022,10,03,12,49,21.00
2022,10,03,12,50,21.00
2022,10,03,12,51,21.00
2022,10,03,12,52,21.00
2022,10,03,12,53,21.00
2022,10,03,12,54,21.10
2022,10,03,12,55,21.20
2022,10,03,12,56,21.20
2022,10,03,12,57,21.30
2022,10,03,12,58,21.30
2022,10,03,12,59,21.30
2022,10,03,13,00,21.30
2022,10,03,13,01,21.30
2022,10,03,13,02,21.40
2022,10,03,13,03,21.40
2022,10,03,13,04,21.50
2022,10,03,13,05,21.60
2022,10,03,13,06,21.60
2022,10,03,13,07,21.60
2022,10,03,13,08,21.60
2022,10,03,13,09,21.60
2022,10,03,13,10,21.60
2022,10,03,13,11,21.60
2022,10,03,13,12,21.60
2022,10,03,13,13,21.70
2022,10,03,13,14,21.70
2022,10,03,13,15,21.60
2022,10,03,13,16,21.60
2022,10,03,13,17,21.70
2022,10,03,13,18,21.70
2022,10,03,13,19,21.80
2022,10,03,13,20,21.90
2022,10,03,13,21,22.00
2022,10,03,13,22,22.00
2022,10,03,13,23,22.10
2022,10,03,13,24,22.10
2022,10,03,13,25,22.20
2022,10,03,13,26,22.30
2022,10,03,13,27,22.30
2022,10,03,13,28,22.40
2022,10,03,13,29,22.40
2022,10,03,13,30,22.40
2022,10,03,13,31,22.50
2022,10,03,13,32,22.50
2022,10,03,13,33,22.50
2022,10,03,13,34,22.60
2022,10,03,13,35,22.70
2022,10,03,13,36,22.70
2022,10,03,13,37,22.80
2022,10,03,13,38,22.80
2022,10,03,13,39,22.80
2022,10,03,13,40,22.80
2022,10,03,13,41,22.70
2022,10,03,13,42,22.70
2022,10,03,13,43,22.60
2022,10,03,13,44,22.60
2022,10,03,13,45,22.60
2022,10,03,13,46,22.60
2022,10,03,13,47,22.60
2022,10,03,13,48,22.60
2022,10,03,13,49,22.60
2022,10,03,13,50,22.60
2022,10,03,13,51,22.60
2022,10,03,13,52,22.60
2022,10,03,13,53,22.60
2022,10,03,13,54,22.60
2022,10,03,13,55,22.60
2022,10,03,13,56,22.60
2022,10,03,13,57,22.60
2022,10,03,13,58,22.60
2022,10,03,13,59,22.70
2022,10,03,14,00,22.80
2022,10,03,14,01,22.80
2022,10,03,14,02,22.90
2022,10,03,14,03,23.10
2022,10,03,14,04,22.90
2022,10,03,14,05,22.70
2022,10,03,14,06,22.50
2022,10,03,14,07,22.30
2022,10,03,14,08,22.20
2022,10,03,14,09,22.10
2022,10,03,14,10,22.10
2022,10,03,14,11,22.10
2022,10,03,14,12,22.00
2022,10,03,14,13,21.90
2022,10,03,14,14,21.80
2022,10,03,14,15,21.80
2022,10,03,14,16,21.80
2022,10,03,14,17,21.80
2022,10,03,14,18,21.70
2022,10,03,14,19,21.50
2022,10,03,14,20,21.40
2022,10,03,14,21,21.30
2022,10,03,14,22,21.30
2022,10,03,14,23,21.30
2022,10,03,14,24,21.30
2022,10,03,14,25,21.30
2022,10,03,14,26,21.30
2022,10,03,14,27,21.20
2022,10,03,14,28,21.20
2022,10,03,14,29,21.10
2022,10,03,14,30,21.10
2022,10,03,14,31,21.20
2022,10,03,14,32,21.20
2022,10,03,14,33,21.30
2022,10,03,14,34,21.50
2022,10,03,14,35,21.60
2022,10,03,14,36,21.60
2022,10,03,14,37,21.60
2022,10,03,14,38,21.70
2022,10,03,14,39,21.70
2022,10,03,14,40,21.70
2022,10,03,14,41,21.70
2022,10,03,14,42,21.70
2022,10,03,14,43,21.80
2022,10,03,14,44,21.80
2022,10,03,14,45,21.80
2022,10,03,14,46,21.80
2022,10,03,14,47,21.70
2022,10,03,14,48,21.70
2022,10,03,14,49,21.70
2022,10,03,14,50,21.70
2022,10,03,14,51,21.60
2022,10,03,14,52,21.70
2022,10,03,14,53,21.80
2022,10,03,14,54,21.90
2022,10,03,14,55,21.90
2022,10,03,14,56,22.00
2022,10,03,14,57,22.00
2022,10,03,14,58,22.00
2022,10,03,14,59,22.00
2022,10,03,15,00,22.00
2022,10,03,15,01,21.90
2022,10,03,15,02,21.90
2022,10,03,15,03,21.90
2022,10,03,15,04,22.00
2022,10,03,15,05,21.90
2022,10,03,15,06,21.80
2022,10,03,15,07,21.70
2022,10,03,15,08,21.60
2022,10,03,15,09,21.60
2022,10,03,15,10,21.60
2022,10,03,15,11,21.60
2022,10,03,15,12,21.60
2022,10,03,15,13,21.60
2022,10,03,15,14,21.50
2022,10,03,15,15,21.40
2022,10,03,15,16,21.30
2022,10,03,15,17,21.30
2022,10,03,15,18,21.30
2022,10,03,15,19,21.30
2022,10,03,15,20,21.30
2022,10,03,15,21,21.30
2022,10,03,15,22,21.30
2022,10,03,15,23,21.30
2022,10,03,15,24,21.30
2022,10,03,15,25,21.30
2022,10,03,15,26,21.30
2022,10,03,15,27,21.30
2022,10,03,15,28,21.30
2022,10,03,15,29,21.30
2022,10,03,15,30,21.40
2022,10,03,15,31,21.40
2022,10,03,15,32,21.40
2022,10,03,15,33,21.40
2022,10,03,15,34,21.40
2022,10,03,15,35,21.30
2022,10,03,15,36,21.30
2022,10,03,15,37,21.30
2022,10,03,15,38,21.30
2022,10,03,15,39,21.30
2022,10,03,15,40,21.30
2022,10,03,15,41,21.30
2022,10,03,15,42,21.30
2022,10,03,15,43,21.30
2022,10,03,15,44,21.20
2022,10,03,15,45,21.10
2022,10,03,15,46,21.10
2022,10,03,15,47,21.10
2022,10,03,15,48,21.20
2022,10,03,15,49,21.20
2022,10,03,15,50,21.20
2022,10,03,15,51,21.30
2022,10,03,15,52,21.30
2022,10,03,15,53,21.30
2022,10,03,15,54,21.30
2022,10,03,15,55,21.30
2022,10,03,15,56,21.30
2022,10,03,15,57,21.30
2022,10,03,15,58,21.30
2022,10,03,15,59,21.30
2022,10,03,16,00,21.30
2022,10,03,16,01,21.30
2022,10,03,16,02,21.30
2022,10,03,16,03,21.30
2022,10,03,16,04,21.30
2022,10,03,16,05,21.30
2022,10,03,16,06,21.30
2022,10,03,16,07,21.30
2022,10,03,16,08,21.30
2022,10,03,16,09,21.40
2022,10,03,16,10,21.40
2022,10,03,16,11,21.30
2022,10,03,16,12,21.30
2022,10,03,16,13,21.30
2022,10,03,16,14,21.30
2022,10,03,16,15,21.40
2022,10,03,16,16,21.60
2022,10,03,16,17,21.70
2022,10,03,16,18,21.80
2022,10,03,16,19,22.00
2022,10,03,16,20,22.20
2022,10,03,16,21,22.30
2022,10,03,16,22,22.50
2022,10,03,16,23,22.60
2022,10,03,16,24,22.70
2022,10,03,16,25,22.70
2022,10,03,16,26,22.80
2022,10,03,16,27,22.80
2022,10,03,16,28,22.80
2022,10,03,16,29,22.90
2022,10,03,16,30,22.90
2022,10,03,16,31,23.10
2022,10,03,16,32,23.10
2022,10,03,16,33,23.30
2022,10,03,16,34,23.30
2022,10,03,16,35,23.40
2022,10,03,16,36,23.40
2022,10,03,16,37,23.40
2022,10,03,16,38,23.40
2022,10,03,16,39,23.40
2022,10,03,16,40,23.40
2022,10,03,16,41,23.40
2022,10,03,16,42,23.40
2022,10,03,16,43,23.60
2022,10,03,16,44,23.60
2022,10,03,16,45,23.60
2022,10,03,16,46,23.40
2022,10,03,16,47,23.40
2022,10,03,16,48,23.40
2022,10,03,16,49,23.30
2022,10,03,16,50,23.20
2022,10,03,16,51,23.20
2022,10,03,16,52,23.20
2022,10,03,16,53,23.20
2022,10,03,16,54,23.20
2022,10,03,16,55,23.10
2022,10,03,16,56,22.90
2022,10,03,16,57,22.90
2022,10,03,16,58,22.90
2022,10,03,16,59,22.90
2022,10,03,17,00,22.90
2022,10,03,17,01,22.80
2022,10,03,17,02,22.80
2022,10,03,17,03,22.70
2022,10,03,17,04,22.70
2022,10,03,17,05,22.70
2022,10,03,17,06,22.70
2022,10,03,17,07,22.70
2022,10,03,17,08,22.70
2022,10,03,17,09,22.70
2022,10,03,17,10,22.70
2022,10,03,17,11,22.70
2022,10,03,17,12,22.70
2022,10,03,17,13,22.70
2022,10,03,17,14,22.70
2022,10,03,17,15,22.70
2022,10,03,17,16,22.70
2022,10,03,17,17,22.70
2022,10,03,17,18,22.70
2022,10,03,17,19,22.70